[[{"header":{"parameterUnit":"m.s-1","parameterCategory":2,"la1":30.2991,"la2":30.254,"lo1":-89.0895,"lo2":-89.0444,"dy":0.0017,"dx":0.0017,"nx":28,"ny":28,"refTime":"2025-12-10T09:00:00:Z","depth":"0","parameterNumber":2,"parameterNumberName":"U-component_of_CURRENTS"},"data":[0,0,0,0,0,0,0,0,0,0,0,0,0,0,0,0,0,0,0,0,0,0,0,0,0,0,0,0,0,0,0,0,0,0,0,0,0,0,0,0,0,0,0,0,0,0,0,0,0,0,0,0,0,0,0,0,0,0,0.4148,0.4149,0,0.4157,0.4156,0.4156,0.4155,0.4155,0.4156,0.4156,0.4172,0.4172,0.4172,0,0,0,0,0,0,0,0,0,0,0,0,0,0.4113,0.4113,0.4148,0.4149,0.4149,0.4157,0.4156,0.4156,0.4155,0.4155,0.4156,0.4156,0.4172,0.4172,0.4172,0,0,0,0,0,0,0,0,0,0,0,0,0,0.4121,0.4113,0.4148,0.4153,0.4154,0.4157,0.4156,0.4156,0.4155,0.4155,0.4156,0.4156,0.4171,0.4172,0.4172,0.4167,0,0,0.4173,0.4173,0,0,0,0,0,0,0,0,0.4121,0.4122,0.4152,0.4152,0.4153,0.4159,0.415,0.4161,0.4155,0.415,0.4156,0.4156,0.417,0.4171,0.4166,0.4167,0.4168,0.4173,0.4173,0.4173,0.4173,0,0,0,0,0,0,0,0.412,0.4122,0.4148,0.4152,0.4153,0.4148,0.4149,0.4151,0.4155,0.4151,0.4152,0.4159,0.417,0.4165,0.4166,0.4168,0.4173,0.4173,0.4173,0.4173,0.4166,0.4166,0,0,0,0,0,0,0.4128,0.4121,0.4147,0.4148,0.4142,0.4149,0.415,0.4153,0.4155,0.4157,0.4159,0.4159,0.4165,0.4166,0.4167,0.4162,0.4173,0.4173,0.4174,0.4166,0.4166,0.4165,0,0,0,0,0,0,0.4127,0.413,0.4147,0.4138,0.4141,0.415,0.4153,0.4153,0.4148,0.4162,0.4163,0.4153,0.4165,0.4166,0.4162,0.4162,0.4174,0.4174,0.4167,0.4166,0.4166,0.4151,0,0,0,0,0,0,0.4126,0.413,0.4128,0.4139,0.4142,0.4143,0.4153,0.4153,0.4154,0.4154,0.4158,0.4159,0.4165,0.4162,0.4163,0.4163,0.4174,0.4167,0.4166,0.4166,0.4152,0.415,0.4148,0,0,0,0,0,0.4125,0.412,0.4128,0.4131,0.4142,0.4143,0.4143,0.4148,0.4153,0.4145,0.4148,0.4159,0.4158,0.4161,0.4163,0.4163,0.4168,0.4167,0.4166,0.4153,0.415,0.4148,0,0,0,0,0,0,0.4098,0.412,0.4129,0.413,0.4136,0.4144,0.4138,0.4145,0.414,0.4141,0.4151,0.4153,0.4151,0.4156,0.4159,0.4158,0.4166,0.4165,0.4156,0.4153,0.4152,0.4132,0.4174,0,0,0,0,0,0.4095,0.4096,0.4117,0.4113,0.4119,0.4128,0.4129,0.4134,0.4137,0.4135,0.4137,0.4142,0.4148,0.4149,0.4152,0.4148,0.4158,0.415,0.4148,0.4146,0.4131,0.4153,0.4152,0.4163,0.4163,0.4163,0,0,0.408,0.4095,0.4093,0.4108,0.4112,0.4106,0.4128,0.4127,0.4117,0.4138,0.4118,0.4134,0.4145,0.4143,0.4143,0.4147,0.4149,0.4145,0.4144,0.4129,0.4152,0.4151,0.415,0.4162,0.4162,0.4162,0,0,0.4051,0.4068,0.406,0.4067,0.4082,0.4087,0.4087,0.4095,0.4095,0.4086,0.4103,0.4115,0.4112,0.4125,0.4131,0.4119,0.4139,0.4124,0.4099,0.4122,0.4121,0.4121,0.4135,0.4136,0.4123,0.4123,0.4123,0,0.4031,0.4029,0.4055,0.4051,0.4052,0.4076,0.4062,0.4064,0.4066,0.4065,0.4075,0.4083,0.4102,0.4106,0.4106,0.4116,0.4127,0.411,0.412,0.412,0.412,0.4135,0.4136,0.4122,0.4123,0.4123,0.4123,0,0.4,0.3997,0.3992,0.3994,0.3998,0.3989,0.4006,0.4003,0.401,0.4014,0.4018,0.4043,0.405,0.4066,0.4083,0.4092,0.4101,0.4118,0.4127,0.4118,0.4134,0.4136,0.4121,0.4122,0.4122,0.4122,0,0,0.3947,0.3966,0.3959,0.3953,0.3969,0.3962,0.3957,0.3954,0.395,0.3957,0.3949,0.3975,0.3997,0.4006,0.4038,0.4059,0.4083,0.4085,0.4087,0.41,0.4126,0.414,0.4143,0.4106,0.4106,0.4106,0.4139,0,0.3908,0.3887,0.3911,0.3877,0.3865,0.3895,0.3886,0.3892,0.3907,0.3905,0.3936,0.3945,0.3972,0.3991,0.4012,0.4069,0.4085,0.4071,0.413,0.4131,0.4147,0.4145,0.4045,0.4067,0.4141,0.4141,0.4141,0,0.3863,0.3856,0.3825,0.3824,0.3822,0.3807,0.3808,0.3809,0.3829,0.3846,0.3863,0.3892,0.3922,0.3954,0.4019,0.4009,0.4056,0.4097,0.41,0.4115,0.4148,0.4087,0.4068,0.3876,0.4144,0.4144,0.4144,0,0.3803,0.379,0.3761,0.3759,0.3765,0.3756,0.3759,0.3782,0.3785,0.3813,0.3823,0.3858,0.3884,0.3938,0.4026,0.4025,0.4101,0.4114,0.4162,0.4164,0.4089,0.4084,0.3889,0.4149,0.4149,0.4149,0.4148,0,0.3749,0.372,0.3727,0.3708,0.3672,0.3704,0.368,0.3701,0.3729,0.3724,0.3786,0.3795,0.3883,0.394,0.401,0.4093,0.4091,0.4149,0.4172,0.4082,0.4077,0.3917,0.3827,0.415,0.415,0.4149,0.4149,0,0.368,0.3689,0.3652,0.3648,0.3642,0.3616,0.3624,0.3616,0.3662,0.3662,0.3671,0.3748,0.3835,0.393,0.4034,0.4077,0.4039,0.4189,0.4076,0.4085,0.3947,0.3863,0.3663,0.3579,0.4231,0.4232,0.4232,0,0.3632,0.3613,0.3595,0.3571,0.3563,0.3538,0.3524,0.3568,0.3566,0.3627,0.3618,0.3713,0.3765,0.3929,0.4049,0.4172,0.403,0.413,0.411,0.3909,0.3832,0.371,0.3645,0.4003,0.4002,0.4,0.3999,0,0.3544,0.3551,0.3531,0.3488,0.346,0.3429,0.3416,0.3411,0.3463,0.3476,0.3513,0.3567,0.3752,0.3824,0.4005,0.4087,0.3906,0.4111,0.3918,0.3642,0.3477,0.3418,0.4007,0.3989,0.399,0.3991,0.3991,0.3992,0.3474,0.3446,0.3431,0.3394,0.336,0.3319,0.3279,0.3275,0.3266,0.3259,0.3369,0.3396,0.3554,0.381,0.3863,0.385,0.3857,0.3757,0.3677,0.3576,0.3456,0.4026,0.4032,0.4034,0.4035,0.4036,0.4037,0,0.3376,0.3368,0.3333,0.3285,0.3231,0.324,0.32,0.3143,0.3096,0.3115,0.3131,0.3193,0.3282,0.3414,0.35,0.3388,0.3325,0.3285,0.3037,0.3005,0.3517,0.3467,0.3331,0.3331,0.3331,0.3331,0.3332,0.3332,0.3316,0.3271,0.3274,0.3175,0.3137,0.3034,0.3,0.2906,0.2884,0.2781,0.2757,0.2805,0.2947,0.296,0.2872,0.2865,0.2622,0.2578,0.2531,0.2819,0.2854,0.2887,0.2815,0.2545,0.2544,0.1965,0.1959,0.1955]},{"header":{"parameterUnit":"m.s-1","parameterCategory":2,"la1":30.2991,"la2":30.254,"lo1":-89.0895,"lo2":-89.0444,"dy":0.0017,"dx":0.0017,"nx":28,"ny":28,"refTime":"2025-12-10T09:00:00:Z","depth":"0","parameterNumber":3,"parameterNumberName":"V-component_of_CURRENTS"},"data":[0,0,0,0,0,0,0,0,0,0,0,0,0,0,0,0,0,0,0,0,0,0,0,0,0,0,0,0,0,0,0,0,0,0,0,0,0,0,0,0,0,0,0,0,0,0,0,0,0,0,0,0,0,0,0,0,0,0,-0.1437,-0.1437,0,-0.1438,-0.1438,-0.1438,-0.1435,-0.1435,-0.1435,-0.1434,-0.1477,-0.1478,-0.1479,0,0,0,0,0,0,0,0,0,0,0,0,0,-0.1448,-0.1448,-0.1437,-0.1437,-0.1437,-0.1438,-0.1438,-0.1438,-0.1435,-0.1435,-0.1434,-0.1434,-0.1476,-0.1478,-0.1479,0,0,0,0,0,0,0,0,0,0,0,0,0,-0.1446,-0.1448,-0.1437,-0.1435,-0.1435,-0.1438,-0.1438,-0.1438,-0.1435,-0.1435,-0.1434,-0.1434,-0.1476,-0.1478,-0.148,-0.1494,0,0,-0.1485,-0.1486,0,0,0,0,0,0,0,0,-0.1446,-0.1445,-0.1435,-0.1435,-0.1435,-0.1436,-0.1458,-0.1459,-0.1435,-0.1435,-0.1434,-0.1434,-0.1467,-0.147,-0.147,-0.1496,-0.1498,-0.1485,-0.1487,-0.1487,-0.1488,0,0,0,0,0,0,0,-0.1446,-0.1445,-0.1437,-0.1435,-0.1435,-0.144,-0.144,-0.1458,-0.1453,-0.1435,-0.1435,-0.1435,-0.1467,-0.1468,-0.1471,-0.1499,-0.1485,-0.1487,-0.1488,-0.1489,-0.1498,-0.1497,0,0,0,0,0,0,-0.1445,-0.1445,-0.1437,-0.1437,-0.144,-0.144,-0.1439,-0.1436,-0.1452,-0.1453,-0.1435,-0.1435,-0.1465,-0.1469,-0.1472,-0.1459,-0.1487,-0.1489,-0.149,-0.1499,-0.1498,-0.1497,0,0,0,0,0,0,-0.1445,-0.1444,-0.1437,-0.1442,-0.1441,-0.144,-0.1436,-0.1436,-0.1435,-0.1451,-0.1454,-0.1434,-0.1465,-0.147,-0.1475,-0.1462,-0.149,-0.1492,-0.15,-0.1499,-0.1497,-0.1453,0,0,0,0,0,0,-0.1445,-0.1444,-0.1445,-0.1441,-0.1441,-0.1437,-0.1436,-0.1436,-0.1436,-0.1435,-0.1452,-0.1455,-0.1465,-0.1472,-0.1477,-0.1465,-0.1493,-0.1501,-0.1499,-0.1498,-0.1455,-0.145,-0.1445,0,0,0,0,0,-0.1446,-0.145,-0.1445,-0.1445,-0.1441,-0.1437,-0.1437,-0.1436,-0.1436,-0.1435,-0.1437,-0.1455,-0.1465,-0.1473,-0.1479,-0.1467,-0.1502,-0.15,-0.1498,-0.1457,-0.1451,-0.1445,0,0,0,0,0,0,-0.146,-0.1449,-0.1445,-0.1446,-0.144,-0.1436,-0.144,-0.1436,-0.1437,-0.1438,-0.145,-0.1454,-0.1452,-0.1466,-0.1475,-0.1463,-0.1484,-0.1484,-0.1451,-0.1446,-0.1441,-0.143,-0.1495,0,0,0,0,0,-0.1462,-0.1459,-0.1449,-0.145,-0.1448,-0.1443,-0.1443,-0.1439,-0.1438,-0.1438,-0.1444,-0.1449,-0.1448,-0.1453,-0.1459,-0.1461,-0.1468,-0.1454,-0.1449,-0.1445,-0.1439,-0.1434,-0.1429,-0.1491,-0.1491,-0.1491,0,0,-0.1466,-0.1462,-0.1459,-0.1452,-0.145,-0.1437,-0.1443,-0.1441,-0.1424,-0.1445,-0.1431,-0.1438,-0.1445,-0.1437,-0.1437,-0.1448,-0.143,-0.1442,-0.1439,-0.1435,-0.1432,-0.1426,-0.142,-0.1489,-0.1489,-0.149,0,0,-0.147,-0.147,-0.1465,-0.1456,-0.1449,-0.1441,-0.1439,-0.143,-0.1423,-0.1412,-0.1414,-0.1407,-0.1417,-0.1407,-0.1407,-0.1381,-0.1405,-0.1387,-0.1356,-0.1351,-0.1346,-0.1342,-0.1341,-0.1337,-0.1384,-0.1384,-0.1384,0,-0.1475,-0.1461,-0.1464,-0.1453,-0.144,-0.144,-0.1421,-0.1414,-0.1405,-0.1391,-0.1403,-0.1386,-0.1397,-0.137,-0.1358,-0.137,-0.1376,-0.1378,-0.1345,-0.1341,-0.1337,-0.1337,-0.1333,-0.1382,-0.1382,-0.1382,-0.1383,0,-0.1467,-0.1453,-0.1452,-0.1429,-0.1419,-0.1406,-0.139,-0.1376,-0.1368,-0.1357,-0.1334,-0.134,-0.1328,-0.1327,-0.1337,-0.1309,-0.1325,-0.134,-0.136,-0.1328,-0.133,-0.1327,-0.1378,-0.1379,-0.138,-0.1381,0,0,-0.1472,-0.1448,-0.1444,-0.1419,-0.14,-0.1384,-0.1359,-0.1327,-0.13,-0.1297,-0.1261,-0.1256,-0.1263,-0.1262,-0.127,-0.1263,-0.1243,-0.129,-0.1291,-0.1289,-0.1237,-0.115,-0.1138,-0.1257,-0.1257,-0.1256,-0.1248,0,-0.1457,-0.1426,-0.1418,-0.1373,-0.1349,-0.1333,-0.1302,-0.1276,-0.1262,-0.1233,-0.123,-0.1211,-0.1238,-0.123,-0.1228,-0.1239,-0.1233,-0.1244,-0.1268,-0.1268,-0.1195,-0.113,-0.1,-0.0973,-0.1245,-0.1244,-0.1244,0,-0.1438,-0.1418,-0.1377,-0.1323,-0.1311,-0.1286,-0.1229,-0.1204,-0.1172,-0.1162,-0.1148,-0.1156,-0.114,-0.1172,-0.1175,-0.1183,-0.1206,-0.1217,-0.1218,-0.1149,-0.1174,-0.1049,-0.0957,-0.1031,-0.1239,-0.1239,-0.124,0,-0.1416,-0.1378,-0.134,-0.1324,-0.1275,-0.1247,-0.1218,-0.1181,-0.1146,-0.112,-0.1096,-0.1095,-0.1083,-0.111,-0.1136,-0.1161,-0.1138,-0.1178,-0.1119,-0.1115,-0.1012,-0.0998,-0.099,-0.1177,-0.1177,-0.1177,-0.1177,0,-0.1385,-0.1349,-0.1327,-0.13,-0.1244,-0.1223,-0.1162,-0.1135,-0.1094,-0.1039,-0.1062,-0.1015,-0.1068,-0.1064,-0.1109,-0.1083,-0.1119,-0.109,-0.1093,-0.0991,-0.0976,-0.1044,-0.1121,-0.1177,-0.1177,-0.1177,-0.1177,0,-0.1345,-0.1338,-0.1285,-0.1242,-0.1228,-0.1184,-0.1122,-0.1076,-0.105,-0.098,-0.0969,-0.095,-0.0922,-0.0966,-0.0993,-0.1022,-0.1025,-0.1018,-0.089,-0.0876,-0.0874,-0.0954,-0.0945,-0.0951,-0.0943,-0.0941,-0.0939,0,-0.1311,-0.1287,-0.1243,-0.1211,-0.1187,-0.1132,-0.1087,-0.1052,-0.1006,-0.0924,-0.0882,-0.0838,-0.0757,-0.0754,-0.0786,-0.081,-0.0918,-0.0744,-0.0754,-0.0826,-0.0919,-0.0989,-0.1001,-0.0613,-0.0608,-0.0605,-0.0602,0,-0.124,-0.1235,-0.1196,-0.1145,-0.11,-0.1041,-0.0983,-0.0942,-0.0887,-0.0803,-0.0681,-0.0602,-0.0561,-0.0466,-0.0506,-0.0552,-0.0742,-0.0666,-0.077,-0.0665,-0.071,-0.0731,-0.0692,-0.0568,-0.0572,-0.0574,-0.0576,-0.0577,-0.1181,-0.1145,-0.1111,-0.1058,-0.101,-0.0944,-0.0871,-0.0789,-0.0674,-0.0474,-0.0478,-0.0215,-0.0187,-0.0175,-0.0307,-0.0408,-0.0504,-0.043,-0.0525,-0.0593,-0.0571,-0.0449,-0.0309,-0.0311,-0.0312,-0.0314,-0.0315,0,-0.1103,-0.1073,-0.1021,-0.0957,-0.0889,-0.0883,-0.0787,-0.0667,-0.0486,-0.022,-0.0039,0.0262,0.0249,0.0141,-0.0026,-0.0212,-0.0337,-0.0343,-0.0431,-0.0456,-0.035,-0.0307,-0.0121,-0.0121,-0.0121,-0.0121,-0.0121,-0.0121,-0.1052,-0.0994,-0.0978,-0.086,-0.0808,-0.0685,-0.0614,-0.0403,-0.0173,0.0292,0.0633,0.0818,0.0834,0.0256,-0.0102,-0.0225,-0.0424,-0.0423,-0.0584,-0.0542,-0.0559,-0.0575,-0.0552,-0.042,-0.0421,-0.0601,-0.0603,-0.0604]}],[{"header":{"parameterUnit":"m.s-1","parameterCategory":2,"la1":30.2991,"la2":30.254,"lo1":-89.0895,"lo2":-89.0444,"dy":0.0017,"dx":0.0017,"nx":28,"ny":28,"refTime":"2025-12-10T09:00:00:Z","depth":"2","parameterNumber":2,"parameterNumberName":"U-component_of_CURRENTS"},"data":[0,0,0,0,0,0,0,0,0,0,0,0,0,0,0,0,0,0,0,0,0,0,0,0,0,0,0,0,0,0,0,0,0,0,0,0,0,0,0,0,0,0,0,0,0,0,0,0,0,0,0,0,0,0,0,0,0,0,0.1887,0.1888,0,0.1909,0.1909,0.191,0.1929,0.193,0.193,0.193,0.1935,0.1935,0.1935,0,0,0,0,0,0,0,0,0,0,0,0,0,0.1866,0.1866,0.1887,0.1888,0.1888,0.1909,0.191,0.191,0.1929,0.193,0.193,0.193,0.1935,0.1935,0.1935,0,0,0,0,0,0,0,0,0,0,0,0,0,0.188,0.1866,0.1887,0.19,0.1902,0.1909,0.191,0.191,0.1929,0.193,0.193,0.193,0.1935,0.1935,0.1935,0.1927,0,0,0.1935,0.1935,0,0,0,0,0,0,0,0,0.1879,0.1881,0.1898,0.1899,0.1901,0.1917,0.1904,0.1915,0.1929,0.1919,0.193,0.193,0.1927,0.1928,0.1931,0.1927,0.1927,0.1935,0.1935,0.1935,0.1935,0,0,0,0,0,0,0,0.1878,0.188,0.1896,0.1898,0.19,0.1906,0.1909,0.1906,0.192,0.192,0.1921,0.1924,0.1928,0.1931,0.1932,0.1928,0.1935,0.1935,0.1935,0.1934,0.2013,0.2015,0,0,0,0,0,0,0.1875,0.1879,0.1895,0.1896,0.1891,0.1906,0.1909,0.1911,0.1921,0.1923,0.1923,0.1924,0.1932,0.1932,0.1932,0.1988,0.1935,0.1934,0.1934,0.2011,0.2014,0.2016,0,0,0,0,0,0,0.1875,0.1876,0.1894,0.1888,0.1891,0.1906,0.1909,0.1912,0.1936,0.1924,0.1926,0.1947,0.1932,0.1932,0.1958,0.1986,0.1934,0.1934,0.2008,0.2012,0.2015,0.2058,0,0,0,0,0,0,0.1874,0.1876,0.189,0.1888,0.1891,0.191,0.1909,0.1912,0.1936,0.1938,0.1944,0.1944,0.1932,0.1958,0.1958,0.1985,0.1934,0.2006,0.201,0.2014,0.2054,0.2063,0.207,0,0,0,0,0,0.1873,0.1879,0.189,0.1893,0.1905,0.191,0.1913,0.1924,0.1937,0.1948,0.1964,0.1945,0.1984,0.196,0.1959,0.1986,0.2004,0.2009,0.2013,0.2051,0.2061,0.207,0,0,0,0,0,0,0.1878,0.1881,0.1894,0.1902,0.1914,0.1914,0.1927,0.1938,0.196,0.1971,0.1963,0.1964,0.2003,0.1993,0.1966,0.2026,0.1995,0.2,0.2024,0.2033,0.2041,0.2042,0.1934,0,0,0,0,0,0.1885,0.1893,0.1899,0.1911,0.1917,0.193,0.194,0.195,0.1962,0.1973,0.1977,0.1994,0.2019,0.2024,0.2039,0.2059,0.2084,0.2082,0.209,0.2097,0.2101,0.2187,0.2203,0.2032,0.2032,0.2032,0,0,0.1891,0.1896,0.1901,0.1914,0.1925,0.1936,0.1937,0.1957,0.1976,0.1969,0.2,0.2022,0.2035,0.2068,0.2084,0.2061,0.2159,0.2103,0.2108,0.2109,0.2193,0.221,0.2225,0.2035,0.2035,0.2034,0,0,0.1895,0.1911,0.1917,0.1929,0.195,0.1957,0.1969,0.1982,0.2,0.2029,0.2046,0.2088,0.21,0.2126,0.2138,0.22,0.2205,0.2208,0.2236,0.2319,0.2334,0.2347,0.2396,0.2413,0.2202,0.2202,0.2202,0,0.1907,0.191,0.1922,0.1932,0.194,0.1969,0.1977,0.2002,0.2026,0.2048,0.2046,0.2123,0.2131,0.2193,0.2216,0.2216,0.2256,0.2192,0.2329,0.2343,0.2355,0.2403,0.2421,0.2205,0.2205,0.2205,0.2204,0,0.1909,0.1921,0.1926,0.1947,0.1961,0.1974,0.2002,0.2036,0.2062,0.2084,0.2155,0.2184,0.2229,0.2246,0.2244,0.2341,0.2338,0.2336,0.23,0.2375,0.242,0.2438,0.2209,0.2208,0.2207,0.2207,0,0,0.1908,0.1922,0.1927,0.1933,0.1968,0.1975,0.2023,0.2062,0.2101,0.2149,0.2201,0.2265,0.2295,0.2315,0.2337,0.2402,0.252,0.2405,0.2409,0.2445,0.2696,0.2463,0.246,0.255,0.2553,0.2556,0.2689,0,0.1907,0.1912,0.1925,0.1942,0.1945,0.1987,0.2018,0.207,0.2119,0.2179,0.225,0.2304,0.2318,0.2348,0.2426,0.2498,0.2572,0.2483,0.2625,0.2629,0.2406,0.2474,0.2295,0.2378,0.2707,0.271,0.2712,0,0.1905,0.1905,0.191,0.1926,0.1933,0.1952,0.2014,0.205,0.2151,0.2192,0.2284,0.2335,0.2447,0.2444,0.2625,0.2572,0.2644,0.2696,0.2702,0.2479,0.2429,0.236,0.2399,0.2742,0.274,0.2738,0.2736,0,0.1884,0.1896,0.1894,0.1902,0.193,0.1949,0.1975,0.2057,0.2092,0.2212,0.2256,0.2395,0.2459,0.2594,0.2691,0.2682,0.2876,0.2873,0.2737,0.2721,0.2589,0.2552,0.3017,0.3017,0.3017,0.3016,0.3016,0,0.187,0.1872,0.1883,0.1884,0.1886,0.1922,0.1954,0.201,0.2096,0.214,0.2262,0.232,0.2505,0.2621,0.2724,0.2764,0.2911,0.2748,0.2743,0.2593,0.2557,0.2885,0.2868,0.3021,0.302,0.3019,0.3018,0,0.1849,0.186,0.1854,0.187,0.1875,0.1881,0.1919,0.1946,0.2037,0.2108,0.2146,0.2295,0.243,0.2585,0.2784,0.2756,0.2847,0.2831,0.2608,0.2569,0.2636,0.262,0.2697,0.269,0.2684,0.2679,0.2675,0,0.1837,0.1831,0.1832,0.1823,0.1827,0.1839,0.1844,0.1914,0.1942,0.2073,0.2098,0.2244,0.229,0.2456,0.2484,0.2583,0.2751,0.2436,0.2353,0.2617,0.2607,0.26,0.2592,0.2232,0.2224,0.2218,0.2213,0,0.1804,0.1809,0.1802,0.1772,0.1766,0.1754,0.1768,0.1778,0.1864,0.1906,0.1958,0.1998,0.2105,0.208,0.2154,0.2198,0.239,0.23,0.271,0.2278,0.2171,0.2162,0.2173,0.2159,0.2164,0.2168,0.2171,0.2173,0.178,0.1756,0.1739,0.1709,0.1694,0.1656,0.1628,0.1628,0.1629,0.1674,0.1778,0.1768,0.1794,0.1756,0.179,0.1843,0.1974,0.196,0.1984,0.2014,0.1873,0.1755,0.164,0.1642,0.1645,0.1646,0.1648,0,0.1722,0.1702,0.167,0.1613,0.1551,0.1585,0.1561,0.1501,0.1438,0.1494,0.1509,0.1354,0.134,0.1459,0.1405,0.1377,0.1438,0.1398,0.1506,0.1556,0.1602,0.1447,0.1099,0.1098,0.1097,0.1096,0,0,0.1689,0.1631,0.1601,0.1477,0.1449,0.1326,0.1302,0.126,0.1242,0.1138,0.1121,0.1231,0.1285,0.1119,0.1141,0.113,0.1342,0.1097,0.1528,0.1698,0.1743,0.1902,0.1713,0,0,0,0,0]},{"header":{"parameterUnit":"m.s-1","parameterCategory":2,"la1":30.2991,"la2":30.254,"lo1":-89.0895,"lo2":-89.0444,"dy":0.0017,"dx":0.0017,"nx":28,"ny":28,"refTime":"2025-12-10T09:00:00:Z","depth":"2","parameterNumber":3,"parameterNumberName":"V-component_of_CURRENTS"},"data":[0,0,0,0,0,0,0,0,0,0,0,0,0,0,0,0,0,0,0,0,0,0,0,0,0,0,0,0,0,0,0,0,0,0,0,0,0,0,0,0,0,0,0,0,0,0,0,0,0,0,0,0,0,0,0,0,0,0,0.0442,0.0441,0,0.0363,0.0362,0.0361,0.0257,0.0256,0.0254,0.0253,0.0069,0.0066,0.0062,0,0,0,0,0,0,0,0,0,0,0,0,0,0.0462,0.0462,0.0442,0.0441,0.0441,0.0363,0.0362,0.0361,0.0257,0.0255,0.0254,0.0252,0.007,0.0066,0.0062,0,0,0,0,0,0,0,0,0,0,0,0,0,0.0423,0.0463,0.0442,0.0381,0.0375,0.0363,0.0362,0.036,0.0258,0.0255,0.0253,0.0251,0.0071,0.0066,0.0061,0.0074,0,0,0.0045,0.0043,0,0,0,0,0,0,0,0,0.0426,0.0423,0.0391,0.0386,0.0379,0.032,0.0302,0.026,0.0258,0.03,0.0253,0.025,0.0146,0.0135,0.0123,0.0065,0.0057,0.0045,0.0041,0.0039,0.0038,0,0,0,0,0,0,0,0.0429,0.0425,0.0408,0.0391,0.0383,0.0344,0.0336,0.0293,0.0233,0.0296,0.0289,0.0285,0.0141,0.0129,0.0118,0.0055,0.0045,0.004,0.0037,0.0035,-0.0039,-0.0038,0,0,0,0,0,0,0.0448,0.0428,0.0411,0.0406,0.04,0.0346,0.0337,0.0339,0.0235,0.0219,0.0287,0.028,0.0139,0.0124,0.0111,0.0103,0.0039,0.0034,0.0031,-0.004,-0.0038,-0.0037,0,0,0,0,0,0,0.0449,0.0448,0.0414,0.0416,0.041,0.0348,0.0351,0.0339,0.0302,0.023,0.021,0.026,0.0136,0.0118,0.0065,0.0096,0.0032,0.0027,-0.0041,-0.0039,-0.0038,0.0098,0,0,0,0,0,0,0.045,0.0449,0.0447,0.0418,0.041,0.041,0.0353,0.0339,0.0305,0.0295,0.0201,0.0183,0.0133,0.0074,0.006,0.0087,0.0023,-0.0043,-0.004,-0.0038,0.0092,0.0104,0.0115,0,0,0,0,0,0.0451,0.0465,0.0447,0.0444,0.0414,0.0412,0.0404,0.035,0.0306,0.0305,0.0236,0.0185,0.0078,0.0071,0.0054,0.008,-0.0044,-0.0041,-0.0039,0.0087,0.0102,0.0115,0,0,0,0,0,0,0.0465,0.0455,0.0435,0.0441,0.0429,0.0395,0.0382,0.0349,0.0296,0.0271,0.0193,0.0173,0.0145,0.009,0.0084,0.0066,0.0012,0.0011,0.0113,0.0126,0.0137,0.0166,0.0019,0,0,0,0,0,0.0473,0.0478,0.0465,0.0466,0.0462,0.0419,0.0405,0.0376,0.0332,0.0304,0.0241,0.0179,0.0151,0.0117,0.0079,0.006,0.0036,0.0067,0.0079,0.0089,0.0102,0.0102,0.0115,-0.0028,-0.0028,-0.0028,0,0,0.0478,0.0472,0.0473,0.0469,0.0446,0.0463,0.0403,0.0389,0.0397,0.0294,0.0264,0.0215,0.0156,0.0146,0.0128,0.0096,0.0119,0.0092,0.0102,0.0109,0.0106,0.012,0.0133,-0.0027,-0.0027,-0.0027,0,0,0.0504,0.0486,0.0504,0.0505,0.0489,0.0477,0.0475,0.0441,0.0415,0.0393,0.0334,0.0307,0.0232,0.0219,0.0199,0.0248,0.0185,0.0222,0.0294,0.0295,0.0307,0.0317,0.0318,0.0327,0.0221,0.0221,0.0221,0,0.0503,0.053,0.0508,0.0531,0.0538,0.049,0.052,0.0503,0.0454,0.0448,0.0394,0.0336,0.0281,0.0301,0.0315,0.0278,0.0256,0.025,0.0312,0.0322,0.033,0.0327,0.0336,0.0228,0.0227,0.0226,0.0226,0,0.0556,0.0571,0.0581,0.0601,0.0611,0.0624,0.0617,0.0609,0.0566,0.0548,0.0538,0.0475,0.044,0.0428,0.038,0.042,0.0379,0.0336,0.0285,0.0353,0.0345,0.0352,0.0238,0.0235,0.0233,0.0231,0,0,0.0565,0.061,0.0609,0.0636,0.0649,0.0666,0.0693,0.0712,0.0731,0.0679,0.0707,0.0662,0.0614,0.0589,0.0535,0.0532,0.0575,0.0456,0.0453,0.0469,0.0571,0.0514,0.0515,0.0533,0.0534,0.0536,0.0547,0,0.0605,0.0667,0.0683,0.0744,0.0778,0.0772,0.081,0.082,0.0805,0.0819,0.0775,0.0766,0.068,0.0661,0.0652,0.0595,0.0595,0.0576,0.049,0.0488,0.0439,0.0522,0.0432,0.0431,0.0553,0.0554,0.0555,0,0.0654,0.0689,0.0754,0.0825,0.084,0.0866,0.0919,0.0949,0.097,0.0957,0.0946,0.09,0.0895,0.0806,0.0757,0.074,0.0669,0.0621,0.0619,0.0523,0.0443,0.0377,0.0438,0.0565,0.0564,0.0563,0.0562,0,0.0677,0.0744,0.0795,0.0816,0.0885,0.0906,0.0936,0.0971,0.1014,0.1033,0.106,0.1032,0.1016,0.0941,0.0823,0.0787,0.0772,0.0708,0.06,0.0594,0.0481,0.0463,0.0688,0.0688,0.0688,0.0688,0.0688,0,0.0727,0.0767,0.0797,0.0828,0.089,0.0927,0.0993,0.1022,0.1083,0.1156,0.1114,0.1168,0.1043,0.1009,0.0892,0.0774,0.082,0.0638,0.0603,0.0525,0.0512,0.0585,0.0573,0.0688,0.0688,0.0688,0.0688,0,0.0753,0.0775,0.0833,0.0887,0.09,0.0938,0.1022,0.1087,0.1127,0.1226,0.1237,0.1269,0.1228,0.1106,0.1,0.0858,0.0754,0.0696,0.0613,0.0568,0.0561,0.0555,0.0589,0.0587,0.0586,0.0585,0.0584,0,0.0776,0.0803,0.0855,0.0884,0.0898,0.0954,0.1011,0.1083,0.1169,0.1298,0.1368,0.1365,0.1369,0.1202,0.0948,0.0742,0.077,0.0544,0.046,0.0593,0.0555,0.0552,0.0549,0.0367,0.0365,0.0363,0.0361,0,0.0816,0.0815,0.0865,0.0912,0.0956,0.1042,0.1126,0.121,0.1326,0.1403,0.1519,0.1528,0.1347,0.1099,0.0816,0.0675,0.0566,0.0491,0.0672,0.0401,0.0383,0.0346,0.0351,0.0341,0.0343,0.0344,0.0346,0.0346,0.0829,0.0859,0.0903,0.0959,0.1018,0.1129,0.1225,0.1314,0.1447,0.1562,0.1589,0.1536,0.1276,0.0844,0.0625,0.0386,0.0425,0.0314,0.0321,0.0331,0.0299,0.0278,0.0211,0.0212,0.0213,0.0214,0.0215,0,0.0856,0.0893,0.0952,0.1037,0.113,0.1134,0.1313,0.139,0.152,0.1548,0.1569,0.127,0.0994,0.0761,0.0326,0.0103,0.0087,0.0088,0.009,0.0109,0.0126,0.0084,-0.0061,-0.0062,-0.0062,-0.0063,0,0,0.0873,0.0935,0.0975,0.112,0.1175,0.1328,0.1435,0.145,0.1486,0.1502,0.1418,0.1292,0.0985,0.0624,0.034,0.0134,0.0184,0.0104,0.0333,0.0383,0.0403,0.0248,0.0203,0,0,0,0,0]}],[{"header":{"parameterUnit":"m.s-1","parameterCategory":2,"la1":30.2991,"la2":30.254,"lo1":-89.0895,"lo2":-89.0444,"dy":0.0017,"dx":0.0017,"nx":28,"ny":28,"refTime":"2025-12-10T09:00:00:Z","depth":"4","parameterNumber":2,"parameterNumberName":"U-component_of_CURRENTS"},"data":[0,0,0,0,0,0,0,0,0,0,0,0,0,0,0,0,0,0,0,0,0,0,0,0,0,0,0,0,0,0,0,0,0,0,0,0,0,0,0,0,0,0,0,0,0,0,0,0,0,0,0,0,0,0,0,0,0,0,-0.0104,-0.0104,0,-0.0065,-0.0065,-0.0064,-0.0052,-0.0053,-0.0053,-0.0053,-0.0024,-0.0023,-0.0022,0,0,0,0,0,0,0,0,0,0,0,0,0,-0.0163,-0.0163,-0.0104,-0.0104,-0.0103,-0.0065,-0.0065,-0.0064,-0.0052,-0.0053,-0.0053,-0.0053,-0.0024,-0.0023,-0.0022,0,0,0,0,0,0,0,0,0,0,0,0,0,-0.0133,-0.0162,-0.0104,-0.0092,-0.0091,-0.0065,-0.0065,-0.0064,-0.0052,-0.0053,-0.0053,-0.0053,-0.0024,-0.0023,-0.0021,-0.0009,0,0,-0.0017,-0.0017,0,0,0,0,0,0,0,0,-0.0135,-0.0131,-0.0095,-0.0093,-0.0091,-0.0063,-0.0075,-0.0046,-0.0052,-0.0067,-0.0053,-0.0053,-0.0037,-0.0035,-0.0028,-0.0007,-0.0006,-0.0017,-0.0016,-0.0016,-0.0015,0,0,0,0,0,0,0,-0.0137,-0.0132,-0.0089,-0.0094,-0.0092,-0.0087,-0.0083,-0.0069,-0.0052,-0.0066,-0.0065,-0.006,-0.0037,-0.0029,-0.0027,-0.0005,-0.0017,-0.0016,-0.0015,-0.0015,0.0137,0.014,0,0,0,0,0,0,-0.014,-0.0134,-0.009,-0.0088,-0.0113,-0.0086,-0.0081,-0.0073,-0.0052,-0.0049,-0.006,-0.0059,-0.0031,-0.0028,-0.0026,0.009,-0.0016,-0.0014,-0.0014,0.0134,0.0138,0.0141,0,0,0,0,0,0,-0.0142,-0.0137,-0.0092,-0.011,-0.0104,-0.0085,-0.0075,-0.0072,-0.0056,-0.0047,-0.0044,-0.0046,-0.0031,-0.0028,0.0,0.0087,-0.0014,-0.0013,0.013,0.0135,0.0139,0.0257,0,0,0,0,0,0,-0.0144,-0.0137,-0.013,-0.011,-0.0103,-0.0068,-0.0074,-0.0071,-0.0053,-0.0052,-0.0035,-0.0033,-0.0031,-0.0002,0.0002,0.0087,-0.0011,0.0126,0.0132,0.0138,0.0249,0.0265,0.0279,0,0,0,0,0,-0.0146,-0.0137,-0.013,-0.0125,-0.0094,-0.0068,-0.0063,-0.0051,-0.0052,-0.0039,-0.0025,-0.0033,0.004,0.0,0.0004,0.0092,0.0123,0.013,0.0137,0.0242,0.0262,0.0278,0,0,0,0,0,0,-0.0159,-0.0134,-0.0126,-0.011,-0.0086,-0.0065,-0.0054,-0.0045,-0.0024,-0.002,-0.0017,-0.0013,0.0047,0.0048,0.0004,0.0156,0.0091,0.01,0.017,0.0188,0.0203,0.0244,-0.001,0,0,0,0,0,-0.0158,-0.0147,-0.0118,-0.0106,-0.0092,-0.0071,-0.0058,-0.0043,-0.0024,-0.0015,0.0005,0.0037,0.008,0.0111,0.0131,0.0203,0.0144,0.0271,0.0286,0.0299,0.0337,0.0291,0.0304,0.0165,0.0165,0.0165,0,0,-0.016,-0.0146,-0.0138,-0.0108,-0.009,-0.0052,-0.0063,-0.0035,0.002,-0.0014,0.006,0.0071,0.0103,0.0186,0.0219,0.0201,0.03,0.0308,0.0318,0.035,0.03,0.0313,0.0325,0.017,0.0169,0.0168,0,0,-0.0155,-0.0143,-0.0126,-0.0101,-0.0067,-0.0041,-0.0029,0.0011,0.0053,0.0127,0.0121,0.0175,0.0249,0.0289,0.0322,0.043,0.0362,0.0459,0.0592,0.0547,0.0557,0.0566,0.0465,0.0464,0.0489,0.0489,0.049,0,-0.0155,-0.012,-0.0117,-0.0088,-0.0042,-0.0031,0.0027,0.0065,0.0116,0.0177,0.0171,0.0296,0.031,0.042,0.0488,0.0466,0.041,0.0516,0.0563,0.0571,0.0578,0.0473,0.047,0.0496,0.0495,0.0495,0.0494,0,-0.0129,-0.0093,-0.008,-0.0027,0.0016,0.0064,0.0129,0.0185,0.025,0.0306,0.0428,0.0449,0.0541,0.0564,0.0581,0.067,0.0599,0.056,0.0509,0.0598,0.0482,0.0477,0.0505,0.0503,0.0501,0.0499,0,0,-0.0128,-0.0067,-0.0057,-0.0002,0.007,0.0115,0.0217,0.0335,0.041,0.0496,0.0603,0.0726,0.0749,0.0789,0.0795,0.0795,0.0786,0.074,0.0735,0.0626,0.065,0.0656,0.0649,0.0753,0.0755,0.0755,0.0532,0,-0.009,-0.0018,0.0019,0.0126,0.0184,0.0254,0.0346,0.0448,0.0541,0.0629,0.0706,0.0797,0.0831,0.0882,0.09,0.0801,0.0787,0.0848,0.0595,0.0588,0.0571,0.065,0.0759,0.0527,0.0526,0.0525,0.0524,0,-0.0057,-0.0003,0.0106,0.0233,0.0269,0.0354,0.0526,0.0606,0.0724,0.0797,0.0912,0.0933,0.1006,0.0983,0.091,0.0949,0.085,0.0755,0.0742,0.0718,0.0589,0.0432,0.0513,0.0514,0.0515,0.0515,0.0516,0,-0.004,0.0071,0.0175,0.0216,0.0344,0.0457,0.0555,0.0687,0.0754,0.0905,0.0933,0.1028,0.1029,0.0974,0.0844,0.0885,0.0664,0.0664,0.0561,0.0554,0.0554,0.0547,0.0601,0.0601,0.0601,0.0602,0.0603,0,0.0002,0.0081,0.0205,0.0263,0.0418,0.0508,0.0669,0.0776,0.0866,0.0895,0.1027,0.0998,0.103,0.0911,0.0824,0.0668,0.0643,0.061,0.0529,0.0602,0.0604,0.0545,0.0541,0.0594,0.0595,0.0597,0.0599,0,0.0002,0.007,0.0179,0.0347,0.0429,0.0541,0.0721,0.0779,0.089,0.0911,0.0952,0.096,0.0854,0.0798,0.0628,0.0608,0.0459,0.0388,0.0422,0.0338,0.0385,0.039,0.032,0.0319,0.0318,0.0317,0.0317,0,0.0009,0.0061,0.0231,0.0302,0.0405,0.0577,0.0663,0.0806,0.0834,0.0824,0.0785,0.0735,0.0729,0.049,0.0451,0.0322,0.0314,0.0253,0.0443,0.0445,0.037,0.0377,0.0383,0.0316,0.0315,0.0315,0.0315,0,0.0006,0.0052,0.0132,0.0281,0.0403,0.051,0.0649,0.0659,0.0727,0.0787,0.0674,0.0639,0.05,0.0444,0.0357,0.0244,0.0336,0.0246,0.025,0.0429,0.0438,0.0367,0.0374,0.0312,0.0313,0.0313,0.0313,0,-0.0011,0.002,0.0107,0.0247,0.0348,0.0413,0.0516,0.055,0.0594,0.0614,0.0513,0.0447,0.0433,0.0382,0.0239,0.0227,0.0278,0.032,0.0321,0.0324,0.0446,0.0465,0.0302,0,0,0,0,0,-0.002,-0.0001,0.0079,0.0199,0.0273,0.0349,0.0458,0.0524,0.0564,0.0494,0.0544,0.0425,0.0351,0.0284,0.028,0.0231,0.0254,0.0225,0.0298,0.0297,0.03,0.0453,0,0,0,0,0,0,-0.004,0.0011,0.0041,0.0102,0.0169,0.0249,0.0307,0.0353,0.0358,0.04,0.0359,0.0417,0.0335,0.0333,0.026,0.0254,0.0306,0.0211,0.0212,0.0295,0.0298,0.0301,0.0458,0,0,0,0,0]},{"header":{"parameterUnit":"m.s-1","parameterCategory":2,"la1":30.2991,"la2":30.254,"lo1":-89.0895,"lo2":-89.0444,"dy":0.0017,"dx":0.0017,"nx":28,"ny":28,"refTime":"2025-12-10T09:00:00:Z","depth":"4","parameterNumber":3,"parameterNumberName":"V-component_of_CURRENTS"},"data":[0,0,0,0,0,0,0,0,0,0,0,0,0,0,0,0,0,0,0,0,0,0,0,0,0,0,0,0,0,0,0,0,0,0,0,0,0,0,0,0,0,0,0,0,0,0,0,0,0,0,0,0,0,0,0,0,0,0,0.054,0.054,0,0.0529,0.0529,0.0529,0.0548,0.0549,0.055,0.055,0.0535,0.0534,0.0533,0,0,0,0,0,0,0,0,0,0,0,0,0,0.0542,0.0542,0.054,0.054,0.054,0.0529,0.0529,0.0529,0.0548,0.0549,0.055,0.055,0.0535,0.0534,0.0533,0,0,0,0,0,0,0,0,0,0,0,0,0,0.0538,0.0543,0.054,0.0547,0.0548,0.0529,0.0529,0.0529,0.0548,0.0549,0.055,0.0551,0.0535,0.0534,0.0533,0.0507,0,0,0.0528,0.0528,0,0,0,0,0,0,0,0,0.0539,0.0538,0.0546,0.0547,0.0547,0.054,0.0524,0.0521,0.0548,0.0549,0.055,0.0551,0.0535,0.0534,0.0531,0.0507,0.0506,0.0528,0.0527,0.0527,0.0526,0,0,0,0,0,0,0,0.0539,0.0539,0.0537,0.0546,0.0547,0.0539,0.054,0.0524,0.0538,0.0549,0.055,0.0547,0.0535,0.0532,0.0531,0.0506,0.0528,0.0527,0.0526,0.0526,0.0424,0.0423,0,0,0,0,0,0,0.0539,0.0539,0.0537,0.0536,0.0544,0.0538,0.0539,0.0542,0.0538,0.0538,0.0546,0.0548,0.0534,0.0532,0.053,0.0492,0.0527,0.0526,0.0525,0.0426,0.0424,0.0422,0,0,0,0,0,0,0.0539,0.0539,0.0538,0.0536,0.0536,0.0538,0.0541,0.0542,0.0553,0.0536,0.0537,0.0559,0.0535,0.0532,0.0513,0.0492,0.0525,0.0524,0.0428,0.0426,0.0423,0.0421,0,0,0,0,0,0,0.054,0.054,0.0552,0.0537,0.0536,0.0534,0.054,0.0541,0.0549,0.0551,0.0546,0.0545,0.0535,0.0515,0.0511,0.0491,0.0523,0.0431,0.0427,0.0424,0.0423,0.0418,0.0414,0,0,0,0,0,0.054,0.0546,0.0553,0.0553,0.0549,0.0534,0.0533,0.0537,0.0549,0.0552,0.0539,0.0546,0.0489,0.0512,0.0509,0.0487,0.0432,0.0428,0.0424,0.0425,0.0419,0.0414,0,0,0,0,0,0,0.0555,0.0548,0.0555,0.0561,0.0553,0.0537,0.0545,0.0544,0.0538,0.0546,0.0532,0.0529,0.0495,0.0489,0.0515,0.0443,0.0458,0.0453,0.0459,0.0454,0.0449,0.0466,0.0521,0,0,0,0,0,0.0563,0.0565,0.0557,0.0561,0.0565,0.0559,0.0558,0.0557,0.0545,0.0545,0.0534,0.0511,0.0471,0.0465,0.0434,0.0409,0.0381,0.0387,0.0382,0.0379,0.0386,0.0288,0.0276,0.0408,0.0408,0.0408,0,0,0.0569,0.0565,0.0568,0.0564,0.0565,0.0554,0.0561,0.0563,0.0544,0.0542,0.0522,0.0497,0.0458,0.0418,0.0403,0.0417,0.033,0.0373,0.0371,0.038,0.0283,0.027,0.0259,0.0405,0.0406,0.0406,0,0,0.0569,0.0583,0.0585,0.058,0.0579,0.0564,0.0567,0.0557,0.0553,0.0532,0.0503,0.0459,0.0438,0.038,0.0353,0.0302,0.0302,0.0305,0.0308,0.0212,0.0201,0.0191,0.0162,0.0149,0.0311,0.0311,0.0311,0,0.0578,0.0584,0.0581,0.0579,0.0581,0.0569,0.057,0.0545,0.0523,0.0505,0.0529,0.0434,0.0406,0.0315,0.0308,0.029,0.0274,0.0338,0.0208,0.0197,0.0186,0.0159,0.0145,0.031,0.031,0.0311,0.0311,0,0.0576,0.0586,0.0588,0.0577,0.0571,0.0574,0.0544,0.052,0.0519,0.0492,0.043,0.0384,0.0342,0.0304,0.0306,0.021,0.0236,0.0208,0.0229,0.0173,0.0148,0.0133,0.031,0.031,0.031,0.031,0,0,0.0588,0.059,0.0596,0.0603,0.0584,0.0578,0.0529,0.0487,0.045,0.0423,0.0372,0.0301,0.0307,0.0275,0.0246,0.0164,0.0085,0.0184,0.0179,0.017,-0.0063,0.0007,-0.0002,0.0048,0.0045,0.0042,-0.0041,0,0.0598,0.061,0.0599,0.0599,0.0607,0.0574,0.0523,0.0472,0.0439,0.0377,0.0308,0.0275,0.0286,0.0292,0.0204,0.0097,0.0044,0.0114,-0.002,-0.0023,0.0056,-0.0019,0.0032,-0.0052,-0.0056,-0.0058,-0.006,0,0.0601,0.0616,0.064,0.0619,0.0621,0.063,0.0569,0.0522,0.041,0.0388,0.0336,0.0295,0.0196,0.0217,0.0033,0.0091,0.0044,-0.004,-0.0047,0.0011,0.0018,0.0005,-0.0087,-0.0085,-0.0083,-0.0081,-0.0079,0,0.0625,0.0635,0.0666,0.0669,0.0638,0.0662,0.0657,0.0564,0.0506,0.0444,0.0393,0.0282,0.0231,0.0121,0.0018,0.0031,-0.0195,-0.0215,-0.02,-0.0193,-0.0225,-0.0214,-0.0333,-0.0333,-0.0332,-0.0332,-0.0332,0,0.0633,0.0653,0.0713,0.0738,0.0778,0.0745,0.0759,0.0709,0.0606,0.0499,0.0458,0.0334,0.0206,0.0069,-0.0008,-0.0134,-0.0201,-0.0205,-0.0228,-0.022,-0.0208,-0.0234,-0.0221,-0.0335,-0.0335,-0.0334,-0.0333,0,0.064,0.0666,0.069,0.0741,0.0804,0.0834,0.0879,0.0811,0.075,0.0605,0.0594,0.0369,0.0206,0.009,-0.012,-0.0162,-0.0292,-0.0301,-0.0239,-0.0255,-0.0216,-0.0203,-0.0325,-0.0324,-0.0322,-0.0321,-0.0321,0,0.0636,0.0656,0.0754,0.0806,0.0873,0.0961,0.0974,0.0926,0.0837,0.0583,0.0467,0.0302,0.017,-0.005,-0.0175,-0.0275,-0.0278,-0.0305,-0.0299,-0.0214,-0.0225,-0.0213,-0.0202,-0.0319,-0.0318,-0.0318,-0.0318,0,0.0605,0.0641,0.0666,0.0838,0.0912,0.093,0.0976,0.0914,0.0739,0.0684,0.0402,0.0265,0.0069,-0.0078,-0.01,-0.0204,-0.0285,-0.0294,-0.0297,-0.0292,-0.0208,-0.0217,-0.0207,-0.0314,-0.0314,-0.0315,-0.0315,0,0.0564,0.0572,0.0658,0.0787,0.0882,0.0868,0.0892,0.0802,0.0712,0.0464,0.0358,0.0156,0.0049,-0.0048,-0.0134,-0.0152,-0.0179,-0.0183,-0.0193,-0.0199,-0.0125,0.0002,-0.007,0,0,0,0,0,0.0533,0.0543,0.0628,0.0703,0.0802,0.0889,0.0838,0.0799,0.0671,0.0498,0.0445,0.028,0.0107,-0.0015,-0.0016,-0.0135,-0.0192,-0.0142,-0.0202,-0.0291,-0.0296,-0.0223,0,0,0,0,0,0,0.0484,0.0546,0.0579,0.0644,0.0734,0.0776,0.0752,0.0642,0.0573,0.0467,0.0399,0.0335,0.0198,0.0169,0.0015,-0.0012,-0.0047,-0.0213,-0.0213,-0.0289,-0.0293,-0.0297,-0.0224,0,0,0,0,0]}]]